Simultaneous Nadir Overpasses (SNOs) Predictions

Prediction of SNOs between NOAA-20 and NOAA-19 Satellite Orbit:

Table of predicted SNOs for the next 14.0 days since TLE Epoch: 9/11/2020
Index Date (NOAA-20) Time (NOAA-20) Lat,Lon (NOAA-20) SZA (NOAA-20 ) Date (NOAA-19) Time (NOAA-19) Lat,Lon (NOAA-19) SZA (NOAA-19 ) Distance(km) Time Diff (sec)
1 09/18/2020 08:10:03 78.90, 27.56 78.57 09/18/2020 08:08:53 78.93, 25.60 78.82 41.96 70
2 09/18/2020 09:00:52 -79.06,-166.22 101.18 09/18/2020 08:59:45 -79.05,-166.22 101.16 1.90 67
3 09/18/2020 09:51:37 79.05, 1.16 78.83 09/18/2020 09:50:50 79.05, 1.01 78.85 3.12 47
4 09/18/2020 10:42:22 -79.07, 168.37 101.14 09/18/2020 10:41:45 -79.06, 168.41 101.14 1.08 37
5 09/18/2020 11:33:07 79.06, -24.26 78.86 09/18/2020 11:32:50 79.06, -24.35 78.88 2.01 17
6 09/18/2020 12:23:52 -79.07, 142.96 101.11 09/18/2020 12:23:45 -79.08, 143.05 101.11 1.97 7
7 09/18/2020 13:14:37 79.07, -49.67 78.90 09/18/2020 13:14:50 79.08, -49.71 78.91 1.84 13
8 09/18/2020 14:05:22 -79.08, 117.55 101.07 09/18/2020 14:05:46 -79.06, 117.42 101.08 3.13 24
9 09/18/2020 14:56:07 79.07, -75.08 78.93 09/18/2020 14:56:50 79.10, -75.08 78.94 2.79 43
10 09/18/2020 15:46:52 -79.08, 92.14 101.04 09/18/2020 15:47:46 -79.08, 92.06 101.06 1.65 54
11 09/18/2020 16:37:38 79.11,-100.75 79.02 09/18/2020 16:38:51 79.08,-100.71 78.96 3.60 73
